This demonstration page uses our WeatherBlox Daily Observations layout. Learn more.

Left ArrowRight Arrow

44.8408, -93.29828

Hourly Observations for September 27, 2021

Temp ( °F °C ) Dew Point ( °F °C ) Humidity (%) Winds ( mph kmh ) Pressure ( in mb ) Visibility ( mi km ) Precip ( " mm )
12:53 am 00:53 Mostly Clear 61 16.1 57 13.9 87 87 Calm 29.68 1005 10 16 0.00 0.00
1:53 am 01:53 Clear 62 16.7 58 14.4 86 86 Calm 29.69 1005 10 16 0.00 0.00
2:53 am 02:53 Clear 59 15 57 13.9 93 93 N 6 9 29.70 1006 10 16 0.00 0.00
3:53 am 03:53 Clear 60 15.6 57 13.9 90 90 Calm 29.71 1006 10 16 0.00 0.00
4:53 am 04:53 Clear 58 14.4 56 13.3 93 93 N 5 7 29.73 1007 10 16 0.00 0.00
5:53 am 05:53 Clear 58 14.4 55 12.8 90 90 N 6 9 29.75 1007 10 16 0.00 0.00
6:53 am 06:53 Mostly Clear 57 13.9 54 12.2 90 90 N 5 7 29.77 1008 10 16 0.00 0.00
7:53 am 07:53 Mostly Sunny 58 14.4 54 12.2 87 87 N 7 11 29.80 1009 10 16 0.00 0.00
8:53 am 08:53 Mostly Sunny 62 16.7 54 12.2 75 75 VRB 6 9 29.81 1010 10 16 0.00 0.00
9:53 am 09:53 Mostly Sunny 66 18.9 55 12.8 68 68 N 8 13 29.84 1011 10 16 0.00 0.00
10:53 am 10:53 Mostly Sunny 69 20.6 54 12.2 59 59 NNE 5 7 29.85 1011 10 16 0.00 0.00
11:53 am 11:53 Mostly Sunny 73 22.8 52 11.1 48 48 NE 7 11 29.86 1011 10 16 0.00 0.00
12:53 pm 12:53 Mostly Sunny 75 23.9 50 10 41 41 NNE 9 15 29.87 1011 10 16 0.00 0.00
1:53 pm 13:53 Mostly Sunny 76 24.4 51 10.6 42 42 N 7 11 29.86 1011 10 16 0.00 0.00
2:53 pm 14:53 Mostly Sunny 76 24.4 50 10 40 40 NNE 6 9 29.85 1011 10 16 0.00 0.00
3:53 pm 15:53 Mostly Sunny 77 25 51 10.6 40 40 VRB 6 9 29.85 1011 10 16 0.00 0.00
4:53 pm 16:53 Mostly Sunny 76 24.4 47 8.3 36 36 NE 10 17 29.87 1011 10 16 0.00 0.00
5:53 pm 17:53 Mostly Sunny 75 23.9 46 7.8 36 36 NE 7 11 29.88 1012 10 16 0.00 0.00
6:53 pm 18:53 Mostly Sunny 73 22.8 47 8.3 40 40 VRB 7 11 29.88 1012 10 16 0.00 0.00
7:53 pm 19:53 Mostly Clear 69 20.6 49 9.4 49 49 E 6 9 29.90 1013 10 16 0.00 0.00
8:53 pm 20:53 Mostly Clear 67 19.4 48 8.9 51 51 ENE 5 7 29.91 1013 10 16 0.00 0.00
9:53 pm 21:53 Clear 67 19.4 48 8.9 51 51 E 6 9 29.91 1013 10 16 0.00 0.00
10:53 pm 22:53 Clear 64 17.8 48 8.9 56 56 E 3 6 29.92 1013 10 16 0.00 0.00
11:53 pm 23:53 Clear 61 16.1 47 8.3 60 60 SE 6 9 29.92 1013 10 16 0.00 0.00

Powered by AerisWeather